DELTA 1 R/B(2) *, 11792

Orbit data source: Space-Track

DELTA 1 R/B(2) *, 11792 is space debris in HEO originally from a launch on Wed, 26 Oct 1966 UTC launched from the Air Force Eastern Test Range (AFETR). Debris objects in space refer to the collection of defunct objects orbiting the Earth. Examples of debris include non-operational satellites, rocket bodies, and fragments generated from explosions, collisions, or faulty payload assembly.

Loading next visibility...
Identifier
11792, 1966-096C
Orbit
HEO
Country
Flag of USUS
Related business
Manufacturer
Unknown
Mission
Spacecraft
Bus & Motor
Unknown
Mass
Unknown
Launch date (UTC)
1966-10-26 (59 years ago)
Launch vehicle
Unknown
Launch site
Air Force Eastern Test Range (AFETR)
Object type
Payload
Rocket body
Debris
Shape & HBR
Cyl, 0.8 m
Radar Cross Section
0.687 m², Medium (>0.1 m² and < 1m²)

Expand to show TLE details & history
Last TLE update: 18 hours ago

TLE from 18 hours ago
0 DELTA 1 R/B(2) *
1 11792U 66096C   25242.66408577  .00024010  00000-0  17401-1 0  9996
2 11792  17.8495 272.3661 6116053 238.4460  47.7456  3.79614618420242
Epoch: 2025-08-30T15:56Z
TLE epoch observation values (Epoch: 2025-08-30T15:56:17.01Z)
Latitude
-0.00005°
Longitude
54.1871°
Altitude
9,592.602 km
Speed
5.192 km/s
True Right ascension
18h 09m 24s
True Declination
0° 00' 00"
Sunlit
Object was in daylight at epoch
Visualization orbit readout
Latitude
Unknown
Longitude
Unknown
Altitude
Unknown
Speed
Unknown
Apparent Right ascension
Unknown
Apparent Declination
Unknown
Sunlit
N/A
Visualization observer readout
Local Sidereal Time
01:32:17
Azimuth
Unknown
Elevation
Unknown
Doppler factor
Unknown
Orbital elements
Apogee altitude
21,603.662 km
Perigee altitude
365.439 km
Semi-major axis
17,362.688 km
Eccentricity
0.61161
Inclination
17.8495°
RAAN
272.3661°
Arg. of periapsis
238.446°
True anomaly
121.5103°
Mean anomaly
47.7456°
Eccentric anomaly
82.48719°
Mean motion
0.94868 °/min
Orbital period
379.48 mins
BSTAR
0.017401
Loading maneuver chart data...
Computing Atmospheric mass density...
Loading historical data...
Loading historical data...
Loading historical data...
Loading historical data...
Loading historical data...
Loading historical data...
Loading historical data...
Other satellites on launch #96 in the year 1966 (1966-10-26 UTC)

Documentation

Showing up to 5 results
|